[[{"header":{"parameterUnit":"m.s-1","parameterCategory":1,"la1":30.2991,"la2":30.254,"lo1":-89.0895,"lo2":-89.0444,"dy":0.0017,"dx":0.0017,"nx":28,"ny":28,"refTime":"2026-02-11T03:00:00:Z","depth":0,"parameterNumber":2,"parameterNumberName":"U-component_of_WINDS"},"data":[0,0,0,0,0,0,0,0,0,0,0,0,0,0,0,0,0,0,0,0,0,0,0,0,0,0,0,0,0,0,0,0,0,0,0,0,0,0,0,0,0,0,0,0,0,0,0,0,0,0,0,0,0,0,0,0,0,0,0.9425,0.9425,0,0.9454,0.9454,0.9454,0.9512,0.9513,0.9514,0.9515,0.9545,0.9545,0.9544,0,0,0,0,0,0,0,0,0,0,0,0,0,0.9421,0.9421,0.9425,0.9425,0.9426,0.9454,0.9454,0.9454,0.9512,0.9513,0.9514,0.9516,0.9545,0.9545,0.9544,0,0,0,0,0,0,0,0,0,0,0,0,0,0.9433,0.9421,0.9425,0.9458,0.9461,0.9454,0.9454,0.9455,0.9511,0.9513,0.9515,0.9516,0.9545,0.9545,0.9544,0.9508,0,0,0.9543,0.9543,0,0,0,0,0,0,0,0,0.9433,0.9434,0.9452,0.9455,0.9459,0.9481,0.9464,0.9472,0.9511,0.9492,0.9515,0.9517,0.9522,0.9524,0.9526,0.9509,0.951,0.9543,0.9543,0.9543,0.9543,0,0,0,0,0,0,0,0.9432,0.9433,0.9436,0.9453,0.9457,0.9471,0.9475,0.9466,0.9497,0.9494,0.9498,0.9501,0.9524,0.9526,0.9527,0.9511,0.9543,0.9543,0.9543,0.9542,0.9468,0.9467,0,0,0,0,0,0,0.9426,0.9432,0.9435,0.9437,0.945,0.947,0.9474,0.9472,0.9498,0.9503,0.9499,0.9503,0.9526,0.9527,0.9528,0.9488,0.9543,0.9542,0.9542,0.947,0.9468,0.9466,0,0,0,0,0,0,0.9426,0.9426,0.9434,0.9436,0.9438,0.9468,0.9466,0.9472,0.9473,0.9502,0.9508,0.9495,0.9527,0.9529,0.9513,0.949,0.9542,0.9542,0.9472,0.9469,0.9467,0.9408,0,0,0,0,0,0,0.9425,0.9425,0.9411,0.9435,0.9437,0.9418,0.9464,0.9471,0.9472,0.9478,0.9499,0.9504,0.9528,0.9513,0.9512,0.9491,0.9541,0.9474,0.9471,0.9468,0.9412,0.9403,0.9396,0,0,0,0,0,0.9425,0.9393,0.941,0.941,0.9421,0.9417,0.9418,0.9447,0.947,0.9457,0.9475,0.9503,0.9492,0.9511,0.9511,0.9488,0.9476,0.9472,0.9468,0.9415,0.9405,0.9396,0,0,0,0,0,0,0.9366,0.9397,0.9416,0.9391,0.9401,0.9426,0.941,0.9435,0.9438,0.9443,0.9479,0.9483,0.9463,0.9474,0.9494,0.9455,0.9489,0.9485,0.9449,0.9439,0.9432,0.943,0.9541,0,0,0,0,0,0.935,0.9344,0.9371,0.9346,0.935,0.9379,0.9378,0.94,0.9411,0.9416,0.9433,0.9444,0.9443,0.9442,0.9442,0.9414,0.942,0.9398,0.939,0.9384,0.938,0.9368,0.9359,0.9453,0.9453,0.9453,0,0,0.9317,0.9333,0.9327,0.9335,0.9345,0.9339,0.9382,0.9373,0.9369,0.9415,0.9401,0.9414,0.9429,0.9407,0.9398,0.9415,0.9355,0.9379,0.9373,0.9373,0.9363,0.9354,0.9346,0.9451,0.9451,0.9451,0,0,0.9254,0.9264,0.9246,0.9255,0.927,0.929,0.9285,0.9308,0.9318,0.9305,0.934,0.9336,0.9333,0.9342,0.9347,0.9288,0.9315,0.9287,0.9247,0.9234,0.9227,0.9221,0.9201,0.9194,0.9283,0.9283,0.9283,0,0.9211,0.9202,0.9233,0.9222,0.9226,0.9267,0.9249,0.9256,0.9271,0.9272,0.9291,0.929,0.9302,0.9284,0.927,0.9272,0.9269,0.9285,0.9225,0.9219,0.9214,0.9196,0.9188,0.928,0.928,0.9281,0.9281,0,0.915,0.9143,0.9126,0.914,0.9141,0.9126,0.9156,0.9153,0.9175,0.9192,0.918,0.9196,0.9202,0.9199,0.9219,0.9184,0.9194,0.9219,0.9253,0.9201,0.9185,0.9178,0.9275,0.9276,0.9277,0.9278,0,0,0.905,0.9081,0.9074,0.9082,0.9102,0.9098,0.9086,0.9091,0.9089,0.9098,0.909,0.9087,0.911,0.9115,0.9137,0.9126,0.9081,0.9152,0.9153,0.914,0.9045,0.9027,0.9019,0.9098,0.9097,0.9096,0.9044,0,0.8992,0.8973,0.9001,0.8976,0.8972,0.9011,0.9001,0.9012,0.9029,0.9028,0.9047,0.9045,0.9075,0.9078,0.9069,0.9088,0.9063,0.9092,0.9092,0.9092,0.9088,0.901,0.8991,0.8941,0.9038,0.9037,0.9036,0,0.8922,0.8928,0.8902,0.8926,0.8925,0.8915,0.8923,0.8921,0.8936,0.8949,0.8955,0.8981,0.8972,0.9005,0.8994,0.9013,0.9015,0.9025,0.9023,0.9025,0.9061,0.9011,0.8925,0.8918,0.9026,0.9027,0.9028,0,0.8854,0.8855,0.8841,0.8845,0.8871,0.8864,0.8875,0.8891,0.8893,0.89,0.8902,0.8908,0.8911,0.8916,0.8944,0.8965,0.893,0.8964,0.8941,0.8941,0.8933,0.8933,0.8848,0.8932,0.8932,0.8932,0.8932,0,0.8787,0.877,0.881,0.8801,0.8784,0.8817,0.8799,0.8814,0.8828,0.8824,0.8858,0.8853,0.889,0.8889,0.8911,0.8899,0.89,0.8911,0.8917,0.8909,0.8907,0.8911,0.8916,0.893,0.893,0.8931,0.8931,0,0.8708,0.8734,0.8721,0.8747,0.8753,0.874,0.8762,0.8756,0.8775,0.8769,0.8769,0.8799,0.88,0.8828,0.8835,0.885,0.883,0.8842,0.8825,0.883,0.8805,0.8808,0.872,0.8711,0.8799,0.8799,0.8798,0,0.8664,0.8652,0.8677,0.8676,0.8686,0.8684,0.8686,0.8719,0.872,0.8736,0.8728,0.8732,0.8737,0.8737,0.876,0.8766,0.8779,0.8748,0.8781,0.8773,0.8781,0.8782,0.8781,0.8742,0.8741,0.874,0.8739,0,0.8584,0.8598,0.86,0.8607,0.8609,0.8616,0.8625,0.8623,0.8658,0.8658,0.866,0.8664,0.8671,0.8676,0.8686,0.8698,0.8725,0.8729,0.8724,0.8715,0.8707,0.8713,0.8808,0.8731,0.8731,0.8732,0.8732,0.8733,0.8522,0.8514,0.8531,0.8533,0.8543,0.8551,0.8547,0.8565,0.8567,0.8576,0.8595,0.8594,0.8611,0.8627,0.8637,0.8638,0.8654,0.8646,0.8645,0.8643,0.8638,0.8706,0.8639,0.864,0.864,0.864,0.864,0,0.8445,0.8458,0.8459,0.8471,0.8473,0.8498,0.851,0.851,0.8508,0.8521,0.8526,0.8529,0.8533,0.8556,0.8564,0.856,0.8572,0.8561,0.8562,0.8565,0.8623,0.8627,0.8551,0.8551,0.8551,0.8551,0.8551,0.8551,0.8405,0.8394,0.8409,0.8404,0.8417,0.8416,0.8421,0.8429,0.844,0.8442,0.8446,0.8461,0.8479,0.8488,0.8493,0.85,0.8502,0.8486,0.8497,0.8552,0.856,0.8569,0.8573,0.8486,0.8486,0.844,0.8439,0.8439]},{"header":{"parameterUnit":"m.s-1","parameterCategory":1,"la1":30.2991,"la2":30.254,"lo1":-89.0895,"lo2":-89.0444,"dy":0.0017,"dx":0.0017,"nx":28,"ny":28,"refTime":"2026-02-11T03:00:00:Z","depth":0,"parameterNumber":3,"parameterNumberName":"V-component_of_WINDS"},"data":[0,0,0,0,0,0,0,0,0,0,0,0,0,0,0,0,0,0,0,0,0,0,0,0,0,0,0,0,0,0,0,0,0,0,0,0,0,0,0,0,0,0,0,0,0,0,0,0,0,0,0,0,0,0,0,0,0,0,0.9888,0.9888,0,0.9858,0.9858,0.9858,0.9821,0.982,0.982,0.9819,0.9786,0.9786,0.9786,0,0,0,0,0,0,0,0,0,0,0,0,0,0.9909,0.9908,0.9888,0.9888,0.9887,0.9858,0.9858,0.9857,0.9821,0.982,0.9819,0.9819,0.9786,0.9786,0.9786,0,0,0,0,0,0,0,0,0,0,0,0,0,0.9891,0.9908,0.9888,0.9865,0.9863,0.9858,0.9858,0.9857,0.9821,0.982,0.9819,0.9818,0.9787,0.9786,0.9786,0.98,0,0,0.9784,0.9784,0,0,0,0,0,0,0,0,0.9892,0.9891,0.9869,0.9867,0.9864,0.9842,0.9853,0.9838,0.9821,0.9837,0.9819,0.9818,0.9806,0.9803,0.98,0.9798,0.9797,0.9784,0.9784,0.9784,0.9783,0,0,0,0,0,0,0,0.9894,0.9892,0.9876,0.9869,0.9866,0.9855,0.9852,0.985,0.9826,0.9835,0.9833,0.983,0.9804,0.98,0.9799,0.9797,0.9784,0.9784,0.9783,0.9783,0.9801,0.9802,0,0,0,0,0,0,0.9899,0.9893,0.9877,0.9875,0.9877,0.9856,0.9852,0.985,0.9826,0.9822,0.9831,0.9828,0.9802,0.9799,0.9797,0.981,0.9784,0.9783,0.9783,0.98,0.9801,0.9802,0,0,0,0,0,0,0.9899,0.9898,0.9878,0.9883,0.988,0.9856,0.9855,0.985,0.9846,0.9823,0.9818,0.9831,0.9801,0.9798,0.9799,0.9808,0.9783,0.9782,0.9799,0.9801,0.9802,0.9836,0,0,0,0,0,0,0.99,0.9898,0.9904,0.9884,0.988,0.9882,0.9855,0.985,0.9846,0.9842,0.9822,0.9818,0.98,0.98,0.9798,0.9807,0.9782,0.9798,0.98,0.9801,0.9834,0.9838,0.9842,0,0,0,0,0,0.9901,0.9916,0.9905,0.9903,0.9888,0.9882,0.988,0.986,0.9847,0.9852,0.9836,0.9819,0.9808,0.98,0.9798,0.9807,0.9798,0.9799,0.9801,0.9832,0.9838,0.9842,0,0,0,0,0,0,0.9938,0.9913,0.99,0.9909,0.9898,0.9876,0.9882,0.9866,0.9858,0.9855,0.983,0.9825,0.9828,0.9818,0.981,0.9817,0.98,0.9801,0.9824,0.9829,0.9833,0.9835,0.9782,0,0,0,0,0,0.9947,0.9946,0.9924,0.9934,0.9929,0.9906,0.9904,0.9889,0.9876,0.9871,0.9855,0.9843,0.9836,0.9832,0.9825,0.9833,0.9826,0.9837,0.9841,0.9845,0.9846,0.9846,0.985,0.9808,0.9808,0.9808,0,0,0.9966,0.9952,0.9953,0.9941,0.993,0.9928,0.9903,0.9902,0.9899,0.987,0.9869,0.9858,0.9841,0.9845,0.9846,0.9836,0.9856,0.9847,0.985,0.9849,0.9848,0.9852,0.9855,0.9809,0.9809,0.9809,0,0,0.9999,0.999,0.9995,0.9985,0.997,0.9954,0.9956,0.9936,0.9926,0.9925,0.9902,0.9898,0.9888,0.9877,0.9869,0.9895,0.9877,0.9893,0.9914,0.9914,0.9917,0.992,0.9927,0.993,0.9895,0.9895,0.9895,0,1.0025,1.0021,1.0,1.0,0.9994,0.9967,0.9971,0.9962,0.9945,0.9941,0.9931,0.9915,0.9903,0.9901,0.9907,0.9903,0.9902,0.9895,0.9919,0.9921,0.9924,0.9929,0.9932,0.9897,0.9897,0.9896,0.9896,0,1.0052,1.005,1.0056,1.0039,1.0034,1.0036,1.0013,1.001,0.9995,0.998,0.9978,0.9962,0.9949,0.9948,0.9934,0.9944,0.9938,0.9924,0.9905,0.993,0.9935,0.9937,0.99,0.9899,0.9898,0.9898,0,0,1.0108,1.0078,1.0081,1.0072,1.0052,1.0049,1.0048,1.0036,1.0033,1.0021,1.0019,1.0009,0.9995,0.9987,0.9971,0.9972,0.9989,0.9957,0.9956,0.9961,0.9996,1.0005,1.0009,0.9978,0.9978,0.9978,0.9996,0,1.0135,1.0134,1.0114,1.0117,1.0113,1.0087,1.0086,1.0073,1.0058,1.0051,1.0035,1.0028,1.0011,1.0006,1.0005,0.9987,0.9995,0.9986,0.9973,0.9972,0.9976,1.0012,1.0022,1.004,0.9998,0.9999,0.9999,0,1.0167,1.0157,1.016,1.0137,1.0135,1.0135,1.0121,1.0116,1.0099,1.0088,1.0078,1.0059,1.0054,1.0038,1.003,1.0024,1.0017,1.0007,1.0007,1.0004,0.9986,1.0007,1.0046,1.0048,1.0002,1.0002,1.0002,0,1.0204,1.0192,1.0191,1.0184,1.0159,1.0159,1.0148,1.013,1.0123,1.011,1.0105,1.0092,1.0085,1.0074,1.0051,1.0042,1.0045,1.0027,1.0034,1.0034,1.0035,1.0035,1.007,1.0033,1.0033,1.0033,1.0033,0,1.0236,1.0238,1.0207,1.0207,1.0207,1.0183,1.0184,1.0171,1.0155,1.0149,1.0126,1.0121,1.0093,1.0084,1.0066,1.0061,1.0058,1.0047,1.0042,1.0049,1.005,1.0043,1.004,1.0034,1.0034,1.0034,1.0034,0,1.0277,1.0257,1.0254,1.0229,1.0223,1.0225,1.0203,1.02,1.0184,1.0177,1.0174,1.0148,1.0136,1.0113,1.0095,1.0083,1.0081,1.0073,1.0086,1.0083,1.009,1.0089,1.0122,1.0123,1.0087,1.0087,1.0088,0,1.0298,1.0299,1.0274,1.0269,1.0259,1.0252,1.0244,1.022,1.0213,1.0192,1.0191,1.0178,1.0166,1.0148,1.0126,1.0112,1.0102,1.0115,1.01,1.0105,1.01,1.0099,1.0098,1.0118,1.0118,1.0118,1.0119,0,1.0335,1.0325,1.0316,1.0302,1.0294,1.0283,1.0269,1.0266,1.0238,1.0231,1.0219,1.021,1.0191,1.0177,1.0158,1.0145,1.0126,1.0124,1.0124,1.013,1.0137,1.0131,1.0093,1.0123,1.0122,1.0122,1.0122,1.0122,1.0365,1.0364,1.0346,1.0335,1.0323,1.0311,1.0306,1.0289,1.0279,1.0262,1.0248,1.0236,1.0216,1.019,1.0178,1.0167,1.0158,1.0159,1.0159,1.0159,1.0161,1.014,1.0164,1.0163,1.0163,1.0163,1.0163,0,1.04,1.0386,1.0377,1.0359,1.0351,1.0335,1.0319,1.0312,1.0303,1.0286,1.0275,1.0259,1.0245,1.0222,1.0205,1.0201,1.0192,1.0197,1.0196,1.0193,1.0171,1.0171,1.0205,1.0205,1.0205,1.0205,1.0205,1.0205,1.0416,1.0412,1.0399,1.0388,1.0374,1.0363,1.0355,1.0343,1.0329,1.0314,1.0302,1.0287,1.0267,1.0248,1.0234,1.0227,1.0221,1.0229,1.0219,1.0199,1.0195,1.0191,1.0191,1.0228,1.0228,1.0242,1.0242,1.0242]}]]